Regional Weather Roundup
Issued by NWS Little Rock, AR

Home | Current Version | Previous Version | Graphics & Text | Print | Product List | Glossary On
Versions: 1 2 3 4 5 6 7 8 9 10 11 12 13 14 15 16 17 18 19 20 21 22 23 24 25 26 27 28 29 30 31 32 33 34 35 36 37 38 39 40 41 42 43 44 45 46 47 48 49 50
000
ASUS44 KLZK 221405
RWRLZK

WEATHER ROUNDUP FOR ARKANSAS
NATIONAL WEATHER SERVICE LITTLE ROCK AR
800 AM CST SAT NOV 22 2014

NOTE: "FAIR" INDICATES FEW OR NO CLOUDS BELOW 12,000 FEET WITH NO
SIGNIFICANT WEATHER AND/OR OBSTRUCTIONS TO VISIBILITY.

ARZ001-003-010-029-221500-
NORTHWEST ARKANSAS

CITY           SKY/WX    TMP DP  RH WIND       PRES   REMARKS
FAYETTEVILLE   LGT RAIN  51  50  96 S12       30.12R
FORT SMITH     CLOUDY    51  48  89 NE6       30.13R
HARRISON       CLOUDY    54  48  80 S8        30.12R
BENTONVILLE    CLOUDY    54  46  76 S9        30.10S
ROGERS         CLOUDY    54  49  83 SE9       30.10R
SILOAM SPGS    CLOUDY    54  46  76 S7        30.10S
HIGHFILL       CLOUDY    54  49  83 S14       30.08S
SPRINGDALE     LGT RAIN  54  50  87 S17       30.12R
$$

ARZ004-005-016-221500-
NORTH CENTRAL ARKANSAS

CITY           SKY/WX    TMP DP  RH WIND       PRES   REMARKS
BATESVILLE     PTSUNNY   52  46  82 SE5       30.20S
FLIPPIN        CLOUDY    48  43  81 S3        30.13S
MTN HOME       CLOUDY    53  47  79 S9        30.12F
$$

ARZ040-041-221500-
WEST CENTRAL ARKANSAS

CITY           SKY/WX    TMP DP  RH WIND       PRES   REMARKS
MENA           CLOUDY    55  52  88 CALM      30.16R
MOUNT IDA      CLOUDY    56  51  84 SE5       30.14R
$$

ARZ009-017-025-026-028-221500-
NORTHEAST ARKANSAS

CITY           SKY/WX    TMP DP  RH WIND       PRES   REMARKS
CORNING        FAIR      45  45 100 E3        30.21F FOG
JONESBORO      CLOUDY    50  47  89 S5        30.22F
NEWPORT        CLOUDY    52  49  89 S9        30.22S
WALNUT RIDGE   PTSUNNY   46  39  76 CALM      30.19F
BLYTHEVILLE    CLOUDY    60  47  61 S13       30.24F
$$

ARZ022-023-033-042-044-221500-
CENTRAL ARKANSAS

CITY           SKY/WX    TMP DP  RH WIND       PRES   REMARKS
LITTLE ROCK    PTSUNNY   52  49  89 CALM      30.20S
N LITTLE ROCK  PTSUNNY   53  50  90 S7        30.20S
JACKSONVILLE   PTSUNNY   53  49  85 SE5       30.18F
HOT SPRINGS    CLOUDY    54  49  83 S10       30.19R
RUSSELLVILLE   CLOUDY    53  49  86 S3        30.16S
CLINTON        CLOUDY    46  46 100 CALM      30.21R FOG
$$

ARZ036-221500-
EAST ARKANSAS

CITY           SKY/WX    TMP DP  RH WIND       PRES   REMARKS
WEST MEMPHIS   CLOUDY    54  47  77 S13       30.23F
$$

ARZ050-053-066-070-073-221500-
SOUTHWEST ARKANSAS

CITY           SKY/WX    TMP DP  RH WIND       PRES   REMARKS
ARKADELPHIA    LGT RAIN  53  53 100 CALM      30.20S
CAMDEN         LGT RAIN  54  50  87 NE6       30.20R
TEXARKANA      CLOUDY    56  52  86 SE12G22   30.15R
EL DORADO      CLOUDY    55  52  89 SE10      30.18F
DE QUEEN       CLOUDY    55  53  93 E3        30.14R FOG
$$

ARZ056-057-069-221500-
SOUTHEAST ARKANSAS

CITY           SKY/WX    TMP DP  RH WIND       PRES   REMARKS
PINE BLUFF     CLOUDY    53  48  83 SE7       30.21S
STUTTGART      PTSUNNY   52  46  82 SE8       30.22S
MONTICELLO     CLOUDY    55  48  77 SE6       30.22R

$$




USA.gov is the U.S. government's official web portal to all federal, state and local government web resources and services.